TimeCDT,TemperatureF,Dew PointF,Humidity,Sea Level PressureIn,VisibilityMPH,Wind Direction,Wind SpeedMPH,Gust SpeedMPH,PrecipitationIn,Events,Conditions,WindDirDegrees,DateUTC
12:16 AM,71.6,68.0,88,29.89,7.0,SE,10.4,-,0.10,Rain-Thunderstorm,Thunderstorms and Rain,140,2013-06-23 05:16:00
12:36 AM,71.6,66.2,83,29.88,10.0,South,10.4,-,0.12,Rain-Thunderstorm,Light Thunderstorms and Rain,170,2013-06-23 05:36:00
12:56 AM,71.6,66.2,83,29.86,10.0,South,9.2,-,N/A,Rain-Thunderstorm,Light Thunderstorms and Rain,170,2013-06-23 05:56:00
1:16 AM,71.6,66.2,83,29.88,7.0,WSW,13.8,21.9,0.09,Rain-Thunderstorm,Heavy Thunderstorms and Rain,240,2013-06-23 06:16:00
1:36 AM,71.6,66.2,83,29.86,10.0,SE,10.4,-,0.15,Thunderstorm,Scattered Clouds,140,2013-06-23 06:36:00
1:56 AM,69.8,66.2,88,29.86,10.0,SE,10.4,-,N/A,,Clear,130,2013-06-23 06:56:00
2:16 AM,69.8,64.4,83,29.88,10.0,ESE,13.8,-,N/A,,Scattered Clouds,120,2013-06-23 07:16:00
2:36 AM,69.8,66.2,88,29.89,10.0,SE,11.5,-,N/A,,Scattered Clouds,140,2013-06-23 07:36:00
2:56 AM,71.6,66.2,83,29.90,10.0,ESE,18.4,-,N/A,,Scattered Clouds,120,2013-06-23 07:56:00
3:16 AM,69.8,64.4,83,29.88,10.0,SE,19.6,26.5,N/A,,Scattered Clouds,130,2013-06-23 08:16:00
3:36 AM,69.8,64.4,83,29.87,10.0,SE,19.6,-,N/A,,Clear,130,2013-06-23 08:36:00
3:56 AM,69.8,64.4,83,29.87,10.0,SE,15.0,19.6,N/A,,Scattered Clouds,140,2013-06-23 08:56:00
4:16 AM,69.8,64.4,83,29.85,10.0,SE,20.7,28.8,N/A,,Scattered Clouds,140,2013-06-23 09:16:00
4:36 AM,69.8,64.4,83,29.83,10.0,SE,21.9,27.6,N/A,,Clear,130,2013-06-23 09:36:00
4:56 AM,68.0,64.4,88,29.82,10.0,SE,20.7,27.6,N/A,,Clear,140,2013-06-23 09:56:00
5:16 AM,69.8,64.4,83,29.82,10.0,SE,17.3,26.5,N/A,,Scattered Clouds,140,2013-06-23 10:16:00
5:36 AM,69.8,64.4,83,29.83,10.0,SSE,15.0,23.0,N/A,,Scattered Clouds,150,2013-06-23 10:36:00
5:56 AM,69.8,64.4,83,29.84,10.0,SSE,11.5,23.0,N/A,,Scattered Clouds,160,2013-06-23 10:56:00
6:16 AM,69.8,64.4,83,29.83,10.0,SSE,11.5,-,N/A,Thunderstorm,Thunderstorm,160,2013-06-23 11:16:00
6:36 AM,69.8,64.4,83,29.84,10.0,SSE,11.5,23.0,N/A,Thunderstorm,Scattered Clouds,150,2013-06-23 11:36:00
6:56 AM,71.6,64.4,78,29.84,10.0,SSE,10.4,19.6,N/A,,Mostly Cloudy,150,2013-06-23 11:56:00
7:16 AM,71.6,64.4,78,29.84,7.0,SSE,10.4,16.1,N/A,Rain-Thunderstorm,Light Thunderstorms and Rain,160,2013-06-23 12:16:00
7:36 AM,71.6,66.2,83,29.85,7.0,South,10.4,19.6,N/A,Rain,Light Rain,180,2013-06-23 12:36:00
7:56 AM,69.8,66.2,88,29.85,5.0,South,9.2,-,N/A,Rain,Rain,170,2013-06-23 12:56:00
8:16 AM,71.6,66.2,83,29.85,7.0,South,11.5,17.3,0.02,Rain,Rain,180,2013-06-23 13:16:00
8:36 AM,71.6,66.2,83,29.86,7.0,SSW,12.7,-,0.04,Rain,Light Rain,200,2013-06-23 13:36:00
8:56 AM,71.6,66.2,83,29.86,7.0,South,9.2,-,N/A,Rain,Rain,170,2013-06-23 13:56:00
9:16 AM,71.6,68.0,88,29.86,7.0,South,10.4,-,N/A,Rain-Thunderstorm,Light Thunderstorms and Rain,180,2013-06-23 14:16:00
9:36 AM,69.8,66.2,88,29.86,7.0,South,9.2,-,N/A,Rain-Thunderstorm,Rain,180,2013-06-23 14:36:00
9:56 AM,69.8,66.2,88,29.79,10.0,SSE,12.7,17.3,N/A,Rain,Light Rain,150,2013-06-23 14:56:00
10:16 AM,69.8,64.4,83,29.76,10.0,SSE,16.1,24.2,N/A,,Scattered Clouds,150,2013-06-23 15:16:00
10:36 AM,71.6,62.6,73,29.78,10.0,SSE,6.9,-,N/A,,Clear,160,2013-06-23 15:36:00
10:56 AM,73.4,64.4,73,29.81,10.0,SW,6.9,-,N/A,,Clear,220,2013-06-23 15:56:00
11:16 AM,73.4,62.6,69,29.83,10.0,SSW,8.1,-,N/A,,Clear,210,2013-06-23 16:16:00
11:36 AM,73.4,62.6,69,29.84,10.0,South,11.5,-,N/A,,Clear,190,2013-06-23 16:36:00
11:56 AM,71.6,62.6,73,29.87,10.0,SSW,12.7,16.1,N/A,,Clear,200,2013-06-23 16:56:00
12:16 PM,71.6,64.4,78,29.87,10.0,SW,12.7,19.6,N/A,,Clear,220,2013-06-23 17:16:00
12:36 PM,71.6,64.4,78,29.87,10.0,SSW,15.0,18.4,N/A,,Clear,200,2013-06-23 17:36:00
12:56 PM,71.6,64.4,78,29.87,10.0,SSW,15.0,24.2,N/A,,Clear,200,2013-06-23 17:56:00
1:16 PM,73.4,64.4,73,29.87,10.0,SSW,16.1,20.7,N/A,,Clear,200,2013-06-23 18:16:00
1:36 PM,73.4,64.4,73,29.87,10.0,SSW,12.7,20.7,N/A,,Clear,210,2013-06-23 18:36:00
1:56 PM,75.2,64.4,69,29.87,10.0,SSW,16.1,-,N/A,,Clear,200,2013-06-23 18:56:00
2:16 PM,75.2,64.4,69,29.86,10.0,SSW,11.5,20.7,N/A,,Clear,210,2013-06-23 19:16:00
2:36 PM,77.0,64.4,65,29.86,10.0,SSW,10.4,-,N/A,,Clear,210,2013-06-23 19:36:00
2:54 PM,78.8,64.4,61,29.86,10.0,SSW,16.1,23.0,N/A,,Clear,210,2013-06-23 19:54:00
3:16 PM,78.8,64.4,61,29.86,10.0,SSW,16.1,20.7,N/A,,Unknown,210,2013-06-23 20:16:00
3:36 PM,78.8,66.2,65,29.86,10.0,SW,15.0,-,N/A,,Unknown,220,2013-06-23 20:36:00
3:56 PM,78.8,66.2,65,29.85,10.0,SW,15.0,-,N/A,,Scattered Clouds,220,2013-06-23 20:56:00
4:15 PM,78.8,66.2,65,29.86,10.0,SW,11.5,-,N/A,,Scattered Clouds,230,2013-06-23 21:15:00
4:36 PM,78.8,66.2,65,29.86,10.0,SSW,12.7,-,N/A,,Mostly Cloudy,210,2013-06-23 21:36:00
4:56 PM,78.8,66.2,65,29.86,10.0,SSW,10.4,-,N/A,,Mostly Cloudy,200,2013-06-23 21:56:00
5:15 PM,80.6,68.0,65,29.87,10.0,SSW,10.4,-,N/A,,Mostly Cloudy,210,2013-06-23 22:15:00
5:36 PM,78.8,68.0,69,29.87,10.0,South,10.4,17.3,N/A,,Mostly Cloudy,190,2013-06-23 22:36:00
5:56 PM,80.6,68.0,65,29.87,10.0,SSW,10.4,-,N/A,,Mostly Cloudy,200,2013-06-23 22:56:00
6:15 PM,78.8,68.0,69,29.87,10.0,SSW,9.2,-,N/A,,Scattered Clouds,200,2013-06-23 23:15:00
6:36 PM,78.8,68.0,69,29.86,10.0,SSW,9.2,-,N/A,,Scattered Clouds,200,2013-06-23 23:36:00
6:56 PM,80.6,68.0,65,29.86,10.0,SW,8.1,-,N/A,,Scattered Clouds,220,2013-06-23 23:56:00
7:16 PM,80.6,66.2,61,29.87,10.0,SW,8.1,-,N/A,,Scattered Clouds,230,2013-06-24 00:16:00
7:36 PM,78.8,66.2,65,29.87,10.0,SW,5.8,-,N/A,,Scattered Clouds,220,2013-06-24 00:36:00
7:55 PM,78.8,66.2,65,29.87,10.0,SW,5.8,-,N/A,,Clear,220,2013-06-24 00:55:00
8:16 PM,77.0,66.2,69,29.88,10.0,SW,5.8,-,N/A,,Clear,220,2013-06-24 01:16:00
8:36 PM,75.2,66.2,73,29.89,10.0,Calm,Calm,-,N/A,,Clear,0,2013-06-24 01:36:00
8:55 PM,75.2,66.2,73,29.89,10.0,Calm,Calm,-,N/A,,Scattered Clouds,0,2013-06-24 01:55:00
9:16 PM,75.2,66.2,73,29.90,10.0,South,4.6,-,N/A,,Scattered Clouds,180,2013-06-24 02:16:00
9:36 PM,73.4,66.2,78,29.91,10.0,South,3.5,-,N/A,,Clear,170,2013-06-24 02:36:00
9:56 PM,71.6,66.2,83,29.91,7.0,South,4.6,-,N/A,,Clear,190,2013-06-24 02:56:00
10:16 PM,71.6,66.2,83,29.91,10.0,SSW,3.5,-,N/A,,Clear,200,2013-06-24 03:16:00
10:36 PM,71.6,66.2,83,29.92,10.0,SSW,5.8,-,N/A,,Clear,200,2013-06-24 03:36:00
10:56 PM,71.6,66.2,83,29.93,10.0,SSW,4.6,-,N/A,,Clear,200,2013-06-24 03:56:00
11:16 PM,71.6,66.2,83,29.94,10.0,SSW,5.8,-,N/A,,Clear,200,2013-06-24 04:16:00
11:36 PM,71.6,66.2,83,29.94,10.0,SSW,4.6,-,N/A,,Clear,210,2013-06-24 04:36:00
11:56 PM,71.6,64.4,78,29.93,10.0,SSW,3.5,-,N/A,,Clear,210,2013-06-24 04:56:00